Weather in Tollhouse

United States     37°00′50″N   119°22′04″W
temp.,
°C
wind,
m/s
gust,
m/s
humid.,
%
clouds,
%
prec.,
mm/h
press.,
hPa
HPBL,
m
25 may, wed
wed2523:00+18ne32335 0.0 101230
02:00+18ne32335 0.0 101227
05:00+18ne32320 0.0 101226
08:00+25ssw11235 0.0 1011400
11:00+29sw33189 0.0 10111308
14:00+32sw44135 0.0 10102111
17:00+31sw331375 0.0 10092355
20:00+23nne32227 0.0 101017
26 may, thu
thu2623:00+20ne3223100 0.0 101130
02:00+19ne322338 0.0 101125
05:00+18ne32245 0.0 101119
08:00+24sw21195 0.0 1011385
11:00+27sw43202 0.0 10111152
14:00+29sw45190 0.0 10101962
17:00+28sw551962 0.0 10092624
20:00+21n2232100 0.0 101117
27 may, fri
fri2723:00+17ene3239100 0.0 101431
02:00+16ene224565 0.0 101420
05:00+15ne2146100 0.0 101412
08:00+19sw2139100 0.0 1014317
11:00+22sw3232100 0.0 1014971
14:00+23sw3231100 0.0 10141255
17:00+24wsw4326100 0.0 10121879
20:00+17n114113 0.0 101311
28 may, sat
sat2823:00+15ne32445 0.0 101429
02:00+14ne22465 0.0 101221
05:00+15e114487 0.0 101215
08:00+14s1248100 0.0 1013242
11:00+14s1150100 0.0 1013289
14:00+14nne015098 0.0 1013236
17:00+17wsw324088 0.0 10101052
20:00+12nnw115721 0.0 101012
29 may, sun
sun2923:00+10ne32640 0.0 101128
02:00+9ne32680 0.0 101022
05:00+7ne22660 0.0 101021
08:00+12ssw22540 0.0 1010568
11:00+14sw43422 0.0 10101404
14:00+17sw442627 0.0 10082381
17:00+17w662823 0.0 10072437
20:00+10nw22300 0.0 100812